Dubuque Regional Airport
Sunday 2:53 PM
Temperature69° (69°/46°)
Dew Point45°
Relative Humidity42
%
Visibility10
mi
Pressure1025.7
mb
Wind Direction
Wind SpeedCalm
Precipitation Today0.00"

Last 30 Observations

Time PresWx Temp DP Feels RH% Vsby Pressure Ceiling Direction Speed 1h Precip
1:53 PM 68° 46° 45
%
10
mi
1026.4
mb
W
280°
5
mph
0.00"
12:53 PM 66° 45° 47
%
10
mi
1026.8
mb
SSE
160°
8
mph
0.00"
11:53 AM 64° 49° 58
%
10
mi
1027.4
mb
SSE
160°
9
mph
0.00"
10:53 AM 62° 47° 58
%
10
mi
1028.1
mb
S
170°
8
mph
0.00"
9:53 AM 57° 45° 64
%
10
mi
1028.5
mb
ESE
120°
8
mph
0.00"
8:53 AM 55° 45° 69
%
10
mi
1028.1
mb
SE
130°
9
mph
0.00"
7:53 AM 51° 45° 79
%
10
mi
1027.8
mb
ESE
120°
9
mph
0.00"
6:53 AM 50° 46° 86
%
10
mi
1027.4
mb
E
90°
7
mph
0.00"
5:53 AM 47° 44° 44°90
%
10
mi
1026.8
mb
NE
40°
6
mph
0.00"
4:53 AM 49° 43° 80
%
10
mi
1026.1
mb
Calm 0.00"
3:53 AM 46° 42° 42°86
%
10
mi
1025.7
mb
NE
50°
7
mph
0.00"
2:53 AM 48° 42° 45°80
%
10
mi
1025.4
mb
NNE
30°
7
mph
0.00"
1:53 AM 52° 43° 71
%
10
mi
1025.1
mb
Calm 0.00"
12:53 AM 52° 44° 74
%
10
mi
1024.7
mb
Calm 0.00"
11:53 PM 57° 41° 55
%
10
mi
1024.7
mb
N
360°
5
mph
0.00"
10:53 PM 56° 42° 60
%
10
mi
1024.4
mb
N
10°
5
mph
0.00"
9:53 PM 57° 43° 59
%
10
mi
1024.1
mb
NNW
340°
6
mph
0.00"
8:53 PM 58° 45° 62
%
10
mi
1023.4
mb
NNW
340°
7
mph
0.00"
7:53 PM 64° 44° 48
%
10
mi
1023.4
mb
NNW
340°
9
mph
0.00"
6:53 PM 67° 45° 45
%
10
mi
1023.0
mb
NNW
340°
9
mph
0.00"
5:55 PM 68° 45° 43
%
10
mi
1023.0
mb
0.00"
5:53 PM 68° 46° 45
%
10
mi
1023.0
mb
0.00"
4:53 PM 68° 45° 43
%
10
mi
1023.0
mb
NW
310°
11
mph
(G18)
0.00"
3:53 PM 69° 47° 45
%
10
mi
1023.0
mb
NNW
340°
11
mph
0.00"
2:53 PM 69° 47° 45
%
10
mi
1023.4
mb
N
350°
15
mph
0.00"
1:53 PM 68° 45° 43
%
10
mi
1023.4
mb
N
350°
13
mph
0.00"
12:53 PM 67° 48° 51
%
10
mi
1024.1
mb
NNW
340°
13
mph
(G21)
0.00"
11:53 AM 66° 49° 54
%
10
mi
1024.1
mb
NNW
340°
17
mph
0.00"
10:53 AM 64° 51° 63
%
10
mi
1024.1
mb
NNW
340°
11
mph
0.00"
9:53 AM 64° 51° 63
%
10
mi
1023.7
mb
NNW
340°
11
mph
0.00"